Home   Weather   Langfang   Past weeks

Flag for China Past Weather in Langfang, Hebei, China — Yesterday and Last 2 Weeks

Now
61 °F

Sunny.


Feels Like: 61 °F
Forecast: 57 / 89 °F
Wind: 3 mph from Northeast

Location: Beijing Airport

Current Time: Apr 28, 2017 at 7:09:07 am

Latest Report: Apr 28, 2017 at 6:30 am


Visibility: 10 mi

Pressure: 29.77 "Hg

Humidity: 27%

Dew Point: 27 °F

Location of LangfangLocation

Past Weather in Langfang — Graph

°F

Langfang Temperature Yesterday

Maximum temperature yesterday: 86 °F (at 2:30 pm)
Minimum temperature yesterday: 54 °F (at 5:30 am)
Average temperature yesterday: 72 °F

High & Low Weather Summary for the Past Weeks

 TemperatureHumidityPressure
High90 °F (Apr 15, 2:00 pm)94% (Apr 17, 5:00 am)30.27 "Hg (Apr 17, 5:00 am)
Low37 °F (Apr 13, 5:00 am)5% (Apr 24, 2:00 pm)29.39 "Hg (Apr 17, 4:00 pm)
Average63 °F34%29.82 "Hg
* Reported Apr 13 5:00 am — Apr 28 5:30 am, Langfang, Weather by CustomWeather, © 2017

Note: Actual official high and low records may vary slightly from our data, if they occured in-between our weather recording intervals... More about our weather records

Advertising

Langfang Weather History for the Previous 24 Hours

Scroll right to see more
 ConditionsComfort  
Time TempWeatherWind HumidityBarometerVisibility
5:30 am
Fri, Apr 28
66 °FSunny.8 mph15%29.74 "Hg10 mi
5:00 am52 °FClear.1 mph38%29.74 "Hg10 mi
4:30 am59 °FClear.3 mph21%29.74 "Hg10 mi
4:00 am64 °FClear.6 mph18%29.74 "Hg10 mi
3:00 am66 °FClear.6 mph15%29.74 "Hg10 mi
2:30 am68 °FClear.8 mph14%29.74 "Hg10 mi
2:00 am66 °FClear.6 mph14%29.74 "Hg10 mi
1:30 am72 °FPassing clouds.8 mph11%29.74 "HgN/A
1:00 am70 °FClear.8 mph12%29.77 "Hg10 mi
12:30 am70 °FClear.6 mph11%29.77 "Hg10 mi
12:00 am70 °FClear.6 mph12%29.77 "Hg10 mi
11:30 pm
Thu, Apr 27
72 °FClear.6 mph10%29.77 "Hg10 mi
11:00 pm73 °FPassing clouds.6 mph9%29.77 "HgN/A
10:30 pm73 °FPassing clouds.8 mph9%29.77 "HgN/A
10:00 pm75 °FClear.13 mph8%29.77 "Hg10 mi
9:30 pm75 °FClear.10 mph8%29.77 "Hg10 mi
9:00 pm75 °FPassing clouds.13 mph8%29.77 "HgN/A
8:30 pm77 °FClear.8 mph8%29.77 "Hg10 mi
8:00 pm75 °FClear.6 mph8%29.74 "Hg10 mi
7:30 pm77 °FPassing clouds.8 mph7%29.74 "HgN/A
6:30 pm81 °FSunny.17 mph7%29.74 "Hg10 mi
6:00 pm81 °FSunny.20 mph7%29.74 "Hg10 mi
5:30 pm82 °FSunny.17 mph6%29.74 "Hg10 mi
5:00 pm84 °FPassing clouds.22 mph6%29.74 "HgN/A
4:30 pm84 °FSunny.22 mph6%29.77 "Hg10 mi
4:00 pm86 °FPassing clouds.24 mph6%29.77 "HgN/A
3:30 pm86 °FPassing clouds.22 mph6%29.80 "HgN/A
3:00 pm86 °FSunny.20 mph6%29.80 "Hg10 mi
2:30 pm86 °FPassing clouds.20 mph6%29.83 "HgN/A
2:00 pm82 °FPassing clouds.13 mph7%29.86 "HgN/A
1:30 pm82 °FPassing clouds.17 mph7%29.86 "HgN/A
12:30 pm81 °FSunny.17 mph8%29.92 "Hg10 mi
11:30 am77 °FPassing clouds.13 mph9%29.98 "HgN/A
11:00 am77 °FPassing clouds.10 mph9%30.01 "HgN/A
10:30 am75 °FPassing clouds.13 mph10%30.01 "HgN/A
9:30 am73 °FSunny.15 mph11%30.04 "Hg10 mi
9:00 am72 °FSunny.17 mph11%30.04 "Hg10 mi
8:30 am70 °FSunny.17 mph11%30.04 "Hg10 mi
8:00 am68 °FSunny.15 mph12%30.07 "Hg10 mi
7:30 am64 °FSunny.13 mph15%30.07 "Hg10 mi
7:00 am64 °FSunny.13 mph16%30.07 "Hg10 mi
Weather by CustomWeather, © 2017

See weather overviewHow to use our weather pages